TimeEDT,TemperatureF,Dew PointF,Humidity,Sea Level PressureIn,VisibilityMPH,Wind Direction,Wind SpeedMPH,Gust SpeedMPH,PrecipitationIn,Events,Conditions,WindDirDegrees,DateUTC
12:53 AM,79.0,64.9,62,29.68,10.0,Calm,Calm,-,N/A,,Clear,0,2013-07-24 04:53:00
1:53 AM,75.9,64.9,69,29.67,10.0,Calm,Calm,-,N/A,,Clear,0,2013-07-24 05:53:00
2:53 AM,77.0,62.1,60,29.68,10.0,Variable,4.6,-,N/A,,Clear,0,2013-07-24 06:53:00
3:53 AM,73.9,61.0,64,29.68,10.0,Calm,Calm,-,N/A,,Scattered Clouds,0,2013-07-24 07:53:00
4:53 AM,73.0,60.1,64,29.67,10.0,Calm,Calm,-,N/A,,Clear,0,2013-07-24 08:53:00
5:53 AM,70.0,61.0,73,29.68,10.0,Calm,Calm,-,N/A,,Clear,0,2013-07-24 09:53:00
6:53 AM,73.0,61.0,66,29.71,10.0,Calm,Calm,-,N/A,,Clear,0,2013-07-24 10:53:00
7:53 AM,73.9,62.1,66,29.73,10.0,Calm,Calm,-,N/A,,Mostly Cloudy,0,2013-07-24 11:53:00
8:53 AM,75.0,63.0,66,29.75,10.0,Variable,3.5,-,N/A,,Clear,0,2013-07-24 12:53:00
9:53 AM,78.1,63.0,60,29.77,10.0,Variable,5.8,-,N/A,,Partly Cloudy,0,2013-07-24 13:53:00
11:53 AM,82.9,61.0,47,29.79,10.0,Variable,3.5,-,N/A,,Clear,0,2013-07-24 15:53:00
12:53 PM,82.9,62.1,49,29.79,10.0,Variable,5.8,-,N/A,,Mostly Cloudy,0,2013-07-24 16:53:00
1:53 PM,81.0,60.1,49,29.80,10.0,Variable,4.6,-,N/A,,Mostly Cloudy,0,2013-07-24 17:53:00
2:53 PM,82.0,57.9,44,29.81,10.0,Variable,3.5,-,N/A,,Mostly Cloudy,0,2013-07-24 18:53:00
3:53 PM,81.0,57.9,45,29.81,10.0,Variable,5.8,-,N/A,,Mostly Cloudy,0,2013-07-24 19:53:00
4:53 PM,82.0,57.9,44,29.81,10.0,Variable,6.9,-,N/A,,Scattered Clouds,0,2013-07-24 20:53:00
5:53 PM,82.0,54.0,38,29.82,10.0,NNE,10.4,-,N/A,,Clear,20,2013-07-24 21:53:00
6:53 PM,80.1,54.0,40,29.82,10.0,Variable,6.9,-,N/A,,Clear,0,2013-07-24 22:53:00
7:53 PM,77.0,55.9,48,29.85,10.0,North,3.5,-,N/A,,Clear,360,2013-07-24 23:53:00
8:53 PM,71.1,57.9,63,29.88,10.0,Calm,Calm,-,N/A,,Clear,0,2013-07-25 00:53:00
9:53 PM,66.9,57.9,73,29.91,10.0,Calm,Calm,-,N/A,,Scattered Clouds,0,2013-07-25 01:53:00
10:53 PM,69.1,54.0,58,29.92,10.0,Calm,Calm,-,N/A,,Clear,0,2013-07-25 02:53:00
11:53 PM,66.0,54.0,65,29.94,10.0,Calm,Calm,-,N/A,,Clear,0,2013-07-25 03:53:00